User: anonymous   Login
Location: Unspecified
(0.0000°N, 0.0000°E)
Time: 07:14:11
(UTC+01:00)
Language:

Timation 2 Rocket - Orbit

View from above orbital plane
View from above orbital plane
View from above satellite
View from above satellite

Ground track
Ground track

The orbit data is extracted from the following two-line orbital elements,

1 04159U 69082AB  14304.08756762  .00000061  00000-0  11637-3 0  7342
2 04159 069.9630 332.8062 0116544 206.0318 153.4886 13.72257367256358
Epoch (UTC): 31 October 2014 02:06:05
Eccentricity: 0.0116544
inclination: 69.9630°
perigee height: 905 km
apogee height: 1077 km
right ascension of ascending node: 332.8062°
argument of perigee: 206.0318°
revolutions per day: 13.72257367
mean anomaly at epoch: 153.4886°
orbit number at epoch: 25635

The dashed part of the orbit path shows where the satellite is in the earth's shadow,  

DLR